| time (UTC) | temp F | wind direction | speed knots | gust knots | rain 1hr in | rain 24hr in | rain mn in | humidity % | barometer mb |
| 20260508021705 | 60 | 163 | 1.7 | 4.3 | 0.00 | 0.00 | 0.00 | 59 | 1007.7 |
| 20260508021204 | 60 | 163 | 1.7 | 4.3 | 0.00 | 0.00 | 0.00 | 59 | 1007.6 |
| 20260508020704 | 60 | 162 | 1.7 | 5.2 | 0.00 | 0.00 | 0.00 | 58 | 1007.6 |
| 20260508020205 | 60 | 172 | 1.7 | 6.1 | 0.00 | 0.00 | 0.00 | 58 | 1007.5 |
| 20260508014204 | 61 | 177 | 1.7 | 4.3 | 0.00 | 0.00 | 0.00 | 56 | 1007.5 |
| 20260508013704 | 62 | 164 | 2.6 | 5.2 | 0.00 | 0.00 | 0.00 | 55 | 1007.5 |
| 20260508011704 | 64 | 157 | 1.7 | 2.6 | 0.00 | 0.00 | 0.00 | 52 | 1007.5 |
| 20260508011204 | 64 | 202 | 1.7 | 6.1 | 0.00 | 0.00 | 0.00 | 51 | 1007.4 |
| 20260508010704 | 64 | 187 | 2.6 | 4.3 | 0.00 | 0.00 | 0.00 | 51 | 1007.5 |
| 20260508010211 | 65 | 178 | 2.6 | 10.4 | 0.00 | 0.00 | 0.00 | 50 | 1007.4 |
| 20260508004704 | 66 | 176 | 1.7 | 7.0 | 0.00 | 0.00 | 0.00 | 49 | 1007.4 |
| 20260508004205 | 66 | 162 | 3.5 | 7.0 | 0.00 | 0.00 | 0.00 | 48 | 1007.4 |
| 20260508003704 | 67 | 180 | 2.6 | 7.8 | 0.00 | 0.00 | 0.00 | 48 | 1007.4 |
| 20260508003204 | 67 | 178 | 2.6 | 8.7 | 0.00 | 0.00 | 0.00 | 47 | 1007.4 |
| 20260508001704 | 69 | 171 | 4.3 | 7.8 | 0.00 | 0.00 | 0.00 | 45 | 1007.5 |
| 20260507233704 | 71 | 180 | 2.6 | 8.7 | 0.00 | 0.00 | 0.00 | 44 | 1007.8 |
| 20260507233205 | 71 | 162 | 4.3 | 10.4 | 0.00 | 0.00 | 0.00 | 44 | 1007.9 |
| 20260507231204 | 71 | 179 | 4.3 | 10.4 | 0.00 | 0.00 | 0.00 | 44 | 1008.0 |
| 20260507230215 | 71 | 160 | 4.3 | 12.2 | 0.00 | 0.00 | 0.00 | 45 | 1008.2 |
| 20260507224705 | 71 | 161 | 5.2 | 13.0 | 0.00 | 0.00 | 0.00 | 45 | 1008.3 |
| 20260507224204 | 71 | 177 | 3.5 | 10.4 | 0.00 | 0.00 | 0.00 | 47 | 1008.3 |
| 20260507223704 | 71 | 169 | 5.2 | 10.4 | 0.00 | 0.00 | 0.00 | 45 | 1008.4 |
| 20260507223204 | 71 | 167 | 4.3 | 14.8 | 0.00 | 0.00 | 0.00 | 46 | 1008.5 |
| 20260507221704 | 71 | 196 | 3.5 | 7.8 | 0.00 | 0.00 | 0.00 | 46 | 1008.6 |
| 20260507221204 | 71 | 185 | 4.3 | 8.7 | 0.00 | 0.00 | 0.00 | 45 | 1008.6 |
| 20260507220204 | 71 | 172 | 4.3 | 12.2 | 0.00 | 0.00 | 0.00 | 46 | 1008.6 |
| 20260507214704 | 71 | 179 | 3.5 | 10.4 | 0.00 | 0.00 | 0.00 | 46 | 1008.6 |
| 20260507214204 | 71 | 184 | 6.1 | 13.9 | 0.00 | 0.00 | 0.00 | 46 | 1008.6 |
| 20260507213204 | 71 | 194 | 5.2 | 17.4 | 0.00 | 0.00 | 0.00 | 46 | 1008.8 |
| 20260507211704 | 71 | 166 | 5.2 | 13.9 | 0.00 | 0.00 | 0.00 | 46 | 1008.9 |
| 20260507210704 | 71 | 179 | 4.3 | 11.3 | 0.00 | 0.00 | 0.00 | 48 | 1009.0 |
| 20260507210204 | 70 | 178 | 6.1 | 15.6 | 0.00 | 0.00 | 0.00 | 47 | 1009.1 |
| 20260507204204 | 70 | 182 | 7.8 | 14.8 | 0.00 | 0.00 | 0.00 | 48 | 1009.5 |
| 20260507203704 | 70 | 165 | 4.3 | 15.6 | 0.00 | 0.00 | 0.00 | 47 | 1009.5 |
| 20260507201703 | 69 | 181 | 5.2 | 15.6 | 0.00 | 0.00 | 0.00 | 48 | 1009.9 |
| 20260507194204 | 69 | 187 | 5.2 | 10.4 | 0.00 | 0.00 | 0.00 | 50 | 1010.4 |
| 20260507193704 | 69 | 174 | 4.3 | 8.7 | 0.00 | 0.00 | 0.00 | 49 | 1010.5 |
| 20260507193204 | 69 | 174 | 5.2 | 12.2 | 0.00 | 0.00 | 0.00 | 48 | 1010.6 |
| 20260507190204 | 69 | 169 | 5.2 | 15.6 | 0.00 | 0.00 | 0.00 | 51 | 1010.8 |
| 20260507184703 | 68 | 176 | 4.3 | 11.3 | 0.00 | 0.00 | 0.00 | 50 | 1011.1 |
| 20260507183704 | 68 | 184 | 6.1 | 10.4 | 0.00 | 0.00 | 0.00 | 50 | 1011.2 |
| 20260507181703 | 67 | 176 | 6.1 | 13.0 | 0.00 | 0.00 | 0.00 | 52 | 1011.5 |
| 20260507181204 | 66 | 174 | 5.2 | 11.3 | 0.00 | 0.00 | 0.00 | 52 | 1011.6 |
| 20260507180714 | 66 | 163 | 5.2 | 10.4 | 0.00 | 0.00 | 0.00 | 49 | 1011.8 |
| 20260507180204 | 66 | 181 | 2.6 | 12.2 | 0.00 | 0.00 | 0.00 | 53 | 1011.8 |
| 20260507173703 | 64 | 195 | 4.3 | 12.2 | 0.00 | 0.00 | 0.00 | 53 | 1012.2 |
| 20260507171704 | 64 | 353 | 2.6 | 10.4 | 0.00 | 0.00 | 0.00 | 51 | 1012.3 |
| 20260507170704 | 64 | 174 | 5.2 | 13.0 | 0.00 | 0.00 | 0.00 | 57 | 1012.7 |
| 20260507170204 | 64 | 178 | 4.3 | 12.2 | 0.00 | 0.00 | 0.00 | 55 | 1012.8 |
| 20260507164704 | 64 | 224 | 4.3 | 10.4 | 0.00 | 0.00 | 0.00 | 53 | 1013.0 |
| 20260507161204 | 63 | 181 | 4.3 | 10.4 | 0.00 | 0.00 | 0.00 | 56 | 1013.3 |
| 20260507160203 | 63 | 168 | 5.2 | 15.6 | 0.00 | 0.00 | 0.00 | 56 | 1013.5 |
| 20260507154205 | 61 | 164 | 2.6 | 7.8 | 0.00 | 0.00 | 0.00 | 57 | 1013.7 |
| 20260507153216 | 62 | 261 | 2.6 | 12.2 | 0.00 | 0.00 | 0.00 | 56 | 1013.6 |
| 20260507151706 | 61 | 196 | 5.2 | 12.2 | 0.00 | 0.00 | 0.00 | 57 | 1013.8 |
| 20260507150705 | 60 | 180 | 3.5 | 8.7 | 0.00 | 0.00 | 0.00 | 59 | 1013.9 |
| 20260507144705 | 59 | 178 | 2.6 | 6.1 | 0.00 | 0.00 | 0.00 | 61 | 1014.1 |
| 20260507143706 | 58 | 179 | 4.3 | 10.4 | 0.00 | 0.00 | 0.00 | 62 | 1014.0 |
| 20260507143205 | 58 | 178 | 3.5 | 10.4 | 0.00 | 0.00 | 0.00 | 62 | 1014.0 |
| 20260507141705 | 56 | 176 | 4.3 | 11.3 | 0.00 | 0.00 | 0.00 | 62 | 1014.2 |
| 20260507140705 | 56 | 182 | 4.3 | 10.4 | 0.00 | 0.00 | 0.00 | 62 | 1014.1 |
| 20260507140205 | 56 | 201 | 2.6 | 7.8 | 0.00 | 0.00 | 0.00 | 61 | 1014.2 |
| 20260507134724 | 55 | 186 | 1.7 | 5.2 | 0.00 | 0.00 | 0.00 | 59 | 1014.2 |
| 20260507134205 | 54 | 157 | 2.6 | 5.2 | 0.00 | 0.00 | 0.00 | 58 | 1014.2 |
| 20260507133706 | 54 | 185 | 1.7 | 4.3 | 0.00 | 0.00 | 0.00 | 58 | 1014.2 |
| 20260507133205 | 53 | 176 | 2.6 | 7.0 | 0.00 | 0.00 | 0.00 | 56 | 1014.2 |
| 20260507131206 | 51 | 184 | 2.6 | 7.0 | 0.00 | 0.00 | 0.00 | 41 | 1014.5 |
| 20260507130705 | 51 | 165 | 2.6 | 4.3 | 0.00 | 0.00 | 0.00 | 33 | 1014.5 |
| 20260507124705 | 48 | 188 | 1.7 | 4.3 | 0.00 | 0.00 | 0.00 | 11 | 1014.6 |
| 20260507124205 | 47 | 186 | 2.6 | 5.2 | 0.00 | 0.00 | 0.00 | 6 | 1014.6 |
| 20260507123705 | 46 | 181 | 1.7 | 5.2 | 0.00 | 0.00 | 0.00 | 3 | 1014.6 |
| 20260507123205 | 46 | 165 | 1.7 | 6.1 | 0.00 | 0.00 | 0.00 | 3 | 1014.7 |
| 20260507121705 | 44 | 198 | 1.7 | 5.2 | 0.00 | 0.00 | 0.00 | 7 | 1014.7 |
| 20260507121205 | 43 | 180 | 1.7 | 5.2 | 0.00 | 0.00 | 0.00 | 9 | 1014.7 |
| 20260507120205 | 43 | 174 | 1.7 | 5.2 | 0.00 | 0.00 | 0.00 | 12 | 1014.6 |
| 20260507114712 | 42 | 178 | 1.7 | 5.2 | 0.00 | 0.00 | 0.00 | 18 | 1014.4 |
| 20260507114205 | 42 | 143 | 1.7 | 4.3 | 0.00 | 0.00 | 0.00 | 21 | 1014.4 |
| 20260507113705 | 42 | 175 | 1.7 | 5.2 | 0.00 | 0.00 | 0.00 | 24 | 1014.5 |
| 20260507111705 | 41 | 187 | 0.9 | 2.6 | 0.00 | 0.00 | 0.00 | 32 | 1014.4 |
| 20260507111204 | 41 | 171 | 1.7 | 4.3 | 0.00 | 0.00 | 0.00 | 33 | 1014.4 |
| 20260507104704 | 41 | 188 | 0.9 | 2.6 | 0.00 | 0.00 | 0.00 | 40 | 1014.4 |
| 20260507094705 | 42 | 194 | 0.9 | 2.6 | 0.00 | 0.00 | 0.00 | 52 | 1014.7 |
| 20260507093705 | 42 | 194 | 0.9 | 2.6 | 0.00 | 0.00 | 0.00 | 54 | 1014.7 |
| 20260507091705 | 42 | 194 | 0.9 | 1.7 | 0.00 | 0.00 | 0.00 | 55 | 1014.8 |
| 20260507091205 | 42 | 194 | 0.9 | 2.6 | 0.00 | 0.00 | 0.00 | 55 | 1014.8 |
| 20260507090705 | 43 | 181 | 0.9 | 2.6 | 0.00 | 0.00 | 0.00 | 56 | 1014.8 |
| 20260507090205 | 43 | 180 | 0.0 | 2.6 | 0.00 | 0.00 | 0.00 | 56 | 1014.8 |
| 20260507084704 | 43 | 188 | 0.9 | 2.6 | 0.00 | 0.00 | 0.00 | 58 | 1014.9 |
| 20260507084204 | 43 | 188 | 0.9 | 2.6 | 0.00 | 0.00 | 0.00 | 59 | 1014.9 |
| 20260507081216 | 43 | 182 | 0.0 | 1.7 | 0.00 | 0.00 | 0.00 | 62 | 1014.9 |
| 20260507080205 | 44 | 179 | 1.7 | 2.6 | 0.00 | 0.00 | 0.00 | 63 | 1015.0 |
| 20260507074705 | 44 | 185 | 0.0 | 0.9 | 0.00 | 0.00 | 0.00 | 64 | 1015.0 |
| 20260507071705 | 44 | 185 | 0.9 | 1.7 | 0.00 | 0.00 | 0.00 | 64 | 1015.2 |
| 20260507071204 | 44 | 185 | 0.9 | 2.6 | 0.00 | 0.00 | 0.00 | 64 | 1015.3 |
| 20260507070704 | 45 | 185 | 0.9 | 2.6 | 0.00 | 0.00 | 0.00 | 64 | 1015.3 |
| 20260507070205 | 45 | 185 | 0.9 | 2.6 | 0.00 | 0.00 | 0.00 | 64 | 1015.3 |
| 20260507064705 | 45 | 190 | 0.9 | 2.6 | 0.00 | 0.00 | 0.00 | 64 | 1015.5 |
| 20260507064204 | 45 | 190 | 0.9 | 2.6 | 0.00 | 0.00 | 0.00 | 64 | 1015.5 |
| 20260507063213 | 46 | 186 | 0.9 | 2.6 | 0.00 | 0.00 | 0.00 | 64 | 1015.7 |
| 20260507061708 | 46 | 180 | 0.9 | 2.6 | 0.00 | 0.00 | 0.00 | 63 | 1015.6 |
| 20260507054704 | 46 | 232 | 0.9 | 1.7 | 0.00 | 0.00 | 0.00 | 63 | 1015.6 |
| 20260507054204 | 46 | 232 | 0.9 | 1.7 | 0.00 | 0.00 | 0.00 | 63 | 1015.7 |
| 20260507053205 | 46 | 232 | 0.0 | 1.7 | 0.00 | 0.00 | 0.00 | 63 | 1015.7 |
| 20260507051704 | 46 | 232 | 0.9 | 1.7 | 0.00 | 0.00 | 0.00 | 64 | 1015.6 |
| 20260507050204 | 46 | 279 | 0.0 | 1.7 | 0.00 | 0.00 | 0.00 | 63 | 1015.6 |
| 20260507044705 | 46 | 279 | 0.0 | 0.0 | 0.00 | 0.00 | 0.00 | 63 | 1015.7 |
| 20260507044205 | 46 | 279 | 0.0 | 0.0 | 0.00 | 0.00 | 0.00 | 63 | 1015.7 |
| 20260507043704 | 46 | 279 | 0.0 | 0.0 | 0.00 | 0.00 | 0.00 | 63 | 1015.6 |
| 20260507043204 | 46 | 279 | 0.0 | 0.0 | 0.00 | 0.00 | 0.00 | 63 | 1015.6 |
| 20260507041205 | 46 | 279 | 0.0 | 0.0 | 0.00 | 0.00 | 0.00 | 63 | 1015.9 |
| 20260507040704 | 46 | 279 | 0.0 | 0.0 | 0.00 | 0.00 | 0.00 | 62 | 1015.9 |
| 20260507040204 | 46 | 279 | 0.0 | 0.0 | 0.00 | 0.00 | 0.00 | 62 | 1015.9 |
| 20260507034205 | 46 | 279 | 0.0 | 0.0 | 0.00 | 0.00 | 0.00 | 60 | 1015.9 |
| 20260507033704 | 46 | 279 | 0.0 | 0.0 | 0.00 | 0.00 | 0.00 | 59 | 1015.9 |
| 20260507033204 | 46 | 279 | 0.0 | 0.0 | 0.00 | 0.00 | 0.00 | 59 | 1016.0 |
| 20260507031704 | 46 | 279 | 0.0 | 0.0 | 0.00 | 0.00 | 0.00 | 59 | 1015.9 |
| 20260507031204 | 46 | 279 | 0.0 | 0.0 | 0.00 | 0.00 | 0.00 | 60 | 1016.0 |
| 20260507030205 | 46 | 279 | 0.0 | 0.0 | 0.00 | 0.00 | 0.00 | 58 | 1015.8 |
| 20260507024204 | 47 | 279 | 0.0 | 0.0 | 0.00 | 0.00 | 0.00 | 54 | 1015.7 |
| 20260507023704 | 47 | 279 | 0.0 | 0.0 | 0.00 | 0.00 | 0.00 | 55 | 1015.7 |
| 20260507023204 | 47 | 279 | 0.0 | 0.0 | 0.00 | 0.00 | 0.00 | 55 | 1015.6 |